GW4407 Weather Reports


time (UTC)temp
C
wind
direction
speed
KPH
gust
KPH
rain 1hr
cm
rain 24hr
cm
rain mn
cm
humidity
%
barometer
mb
20260506080903 9 37 8.0 24.1 0.00 0.41 0.41 86 1017.5
20260506072703 9 11 6.4 11.3 0.00 0.41 0.41 89 1017.4
20260506071803 9 12 6.4 12.9 0.00 0.41 0.41 90 1017.5
20260506070903 8 14 6.4 11.3 0.00 0.41 0.41 91 1017.2
20260506061803 8 342 6.4 11.3 0.03 0.41 0.41 92 1017.2
20260506060903 8 347 6.4 11.3 0.03 0.41 0.41 92 1016.9
20260506060217 8 338 6.4 11.3 0.00 0.38 0.38 92 1016.9
20260506051117 8 7 4.8 9.7 0.03 0.38 0.38 93 1017.0
20260506044503 8 6 6.4 11.3 0.08 0.38 0.38 93 1017.0
20260506043819 8 350 4.8 11.3 0.10 0.38 0.38 93 1017.1
20260506042703 8 11 6.4 11.3 0.15 0.38 0.38 93 1017.1
20260506042017 8 11 6.4 11.3 0.15 0.38 0.38 93 1017.1
20260506040903 8 4 8.0 14.5 0.15 0.36 0.36 93 1017.1
20260506040003 8 19 4.8 11.3 0.15 0.36 0.36 93 1017.0
20260506035403 8 10 4.8 11.3 0.15 0.33 0.33 93 1017.1
20260506034503 8 354 4.8 12.9 0.13 0.30 0.30 93 1017.2
20260506033603 8 3 4.8 12.9 0.08 0.25 0.25 93 1017.2
20260506032917 8 20 6.4 12.9 0.10 0.25 0.25 93 1017.2
20260506031803 8 4 8.0 14.5 0.10 0.23 0.23 92 1017.2
20260506030903 8 350 6.4 14.5 0.08 0.20 0.20 92 1017.4
20260506030216 8 358 6.4 12.9 0.10 0.20 0.20 92 1017.4
20260506025403 8 13 6.4 11.3 0.08 0.18 0.18 92 1017.7
20260506024503 8 13 6.4 12.9 0.10 0.18 0.18 92 1017.4
20260506023603 8 23 6.4 12.9 0.10 0.18 0.18 92 1017.5
20260506022703 8 17 6.4 14.5 0.08 0.15 0.15 91 1017.6
20260506021803 8 2 6.4 14.5 0.08 0.15 0.13 91 1017.5
20260506020903 8 16 6.4 12.9 0.08 0.15 0.13 91 1017.5
20260506020004 8 349 6.4 12.9 0.05 0.13 0.10 91 1017.6
20260506015403 8 354 8.0 12.9 0.05 0.13 0.10 90 1017.7
20260506014503 8 20 6.4 14.5 0.05 0.13 0.08 90 1017.8
20260506013603 8 1 6.4 12.9 0.05 0.15 0.08 90 1017.8
20260506012703 8 354 8.0 14.5 0.05 0.15 0.08 90 1017.9
20260506012016 8 354 8.0 12.9 0.03 0.13 0.05 89 1018.0
20260506010903 8 24 8.0 14.5 0.05 0.15 0.05 89 1017.9
20260506010003 8 17 9.7 14.5 0.05 0.15 0.05 89 1017.9
20260506005403 8 9 8.0 12.9 0.05 0.15 0.05 88 1017.9
20260506004503 8 17 6.4 11.3 0.03 0.13 0.03 88 1018.0
20260506003603 8 2 8.0 16.1 0.03 0.13 0.03 88 1018.1
20260506002703 8 24 8.0 16.1 0.03 0.13 0.03 88 1018.1
20260506001803 8 20 6.4 14.5 0.03 0.15 0.03 88 1018.1
20260506000903 8 10 8.0 17.7 0.00 0.15 0.00 88 1018.4
20260506000003 8 18 4.8 16.1 0.00 0.18 0.00 88 1018.2
20260505235403 8 31 6.4 16.1 0.00 0.20 0.00 88 1018.3
20260505234503 9 10 6.4 12.9 0.00 0.28 0.00 87 1018.5
20260505233817 9 18 6.4 12.9 0.00 0.30 0.00 87 1018.4
20260505232703 9 360 8.0 17.7 0.00 0.36 0.00 86 1018.5
20260505231803 9 2 8.0 20.9 0.00 0.43 0.00 85 1018.6
20260505230903 9 11 6.4 20.9 0.00 0.51 0.00 85 1018.6
20260505230003 9 24 8.0 14.5 0.00 0.69 0.00 85 1018.6
20260505225618 9 19 9.7 14.5 0.00 0.81 0.00 85 1018.7
20260505224503 9 12 8.0 17.7 0.00 1.07 0.00 84 1018.7
20260505223816 9 15 8.0 16.1 0.00 1.17 0.00 84 1018.8
20260505222703 9 351 8.0 17.7 0.00 1.40 0.00 84 1018.9
20260505221803 10 360 8.0 16.1 0.00 1.63 0.00 84 1018.8
20260505220903 10 34 8.0 16.1 0.00 1.96 0.00 83 1018.9
20260505220004 10 24 9.7 16.1 0.00 2.11 0.00 83 1018.8
20260505215403 10 7 9.7 17.7 0.00 2.13 2.11 83 1019.1
20260505214503 10 17 6.4 14.5 0.00 2.13 2.11 83 1019.1
20260505213603 10 8 6.4 17.7 0.00 2.13 2.11 83 1019.2
20260505212919 10 354 8.0 14.5 0.00 2.13 2.11 83 1019.2
20260505211803 10 2 9.7 17.7 0.00 2.13 2.11 82 1019.1
20260505210903 10 21 8.0 16.1 0.00 2.16 2.11 83 1019.3
20260505210003 10 10 6.4 11.3 0.00 2.21 2.11 83 1019.2
20260505205403 10 15 8.0 12.9 0.00 2.24 2.11 83 1019.5
20260505204503 10 10 6.4 16.1 0.00 2.24 2.11 83 1019.4
20260505203603 10 1 8.0 11.3 0.00 2.26 2.11 83 1019.4
20260505202703 10 8 8.0 16.1 0.00 2.26 2.11 83 1019.2
20260505201803 10 17 6.4 12.9 0.00 2.26 2.11 83 1019.3
20260505200903 10 7 8.0 16.1 0.00 2.26 2.11 83 1019.3
20260505200003 10 12 6.4 11.3 0.00 2.26 2.11 83 1019.3
20260505195403 10 18 6.4 11.3 0.00 2.26 2.11 83 1019.2
20260505194503 10 28 6.4 12.9 0.00 2.26 2.11 83 1019.1
20260505193603 10 13 8.0 12.9 0.00 2.26 2.11 83 1019.1
20260505192703 10 12 8.0 14.5 0.00 2.26 2.11 83 1019.2
20260505192018 10 17 8.0 16.1 0.00 2.26 2.11 83 1019.1
20260505190903 10 26 9.7 16.1 0.00 2.26 2.11 83 1019.1
20260505190003 10 11 8.0 14.5 0.00 2.26 2.11 83 1018.9
20260505185403 10 2 8.0 14.5 0.00 2.26 2.11 83 1019.0
20260505184503 10 3 6.4 11.3 0.00 2.26 2.11 83 1018.8
20260505183603 11 358 6.4 14.5 0.00 2.26 2.11 83 1018.8
20260505182918 10 6 8.0 14.5 0.00 2.26 2.11 83 1018.8
20260505181803 10 14 8.0 16.1 0.00 2.26 2.11 83 1018.8
20260505180903 11 27 8.0 12.9 0.00 2.26 2.11 83 1018.8
20260505180003 11 15 8.0 14.5 0.00 2.26 2.11 83 1018.8
20260505175403 11 3 9.7 22.5 0.00 2.26 2.11 82 1018.9
20260505174503 11 31 8.0 12.9 0.00 2.26 2.11 82 1018.8
20260505173603 11 6 8.0 20.9 0.00 2.26 2.11 82 1018.8
20260505172703 11 32 8.0 14.5 0.00 2.26 2.11 82 1018.8
20260505172017 11 10 9.7 20.9 0.00 2.26 2.11 81 1019.0
20260505171116 11 355 8.0 20.9 0.00 2.26 2.11 81 1018.9
20260505170005 11 6 6.4 14.5 0.00 2.26 2.11 81 1019.0
20260505165405 11 21 8.0 14.5 0.00 2.26 2.11 81 1018.9
20260505164503 11 16 8.0 16.1 0.00 2.26 2.11 81 1019.1
20260505163603 11 11 8.0 14.5 0.00 2.26 2.11 81 1019.2
20260505162703 11 356 8.0 12.9 0.00 2.26 2.11 81 1019.0
20260505161803 11 3 6.4 14.5 0.00 2.26 2.11 80 1019.3
20260505160903 11 6 8.0 12.9 0.00 2.26 2.11 81 1019.2
20260505160219 11 19 8.0 16.1 0.00 2.26 2.11 81 1019.3
20260505152703 11 27 8.0 14.5 0.00 2.26 2.11 81 1019.4
20260505152016 11 11 9.7 14.5 0.00 2.26 2.11 81 1019.4
20260505150905 11 359 6.4 11.3 0.00 2.26 2.11 81 1019.4
20260505140219 11 13 6.4 17.7 0.00 2.26 2.11 83 1019.8
20260505124503 10 24 6.4 14.5 0.00 2.26 2.11 90 1020.2
20260505123821 10 17 8.0 14.5 0.00 2.26 2.11 90 1020.3
20260505122920 10 30 8.0 16.1 0.00 2.26 2.11 90 1020.6
20260505121805 10 45 8.0 17.7 0.00 2.26 2.11 89 1020.4
20260505120905 10 54 6.4 14.5 0.00 2.26 2.11 87 1020.5
20260505120218 10 48 6.4 17.7 0.00 2.26 2.11 87 1020.5
20260505115403 10 42 8.0 17.7 0.00 2.26 2.11 88 1020.6
20260505114503 10 33 8.0 16.1 0.00 2.26 2.11 87 1020.6
20260505113605 10 52 6.4 16.1 0.00 2.26 2.11 87 1020.7
20260505112920 10 33 6.4 12.9 0.00 2.26 2.11 88 1020.5
20260505111805 9 19 6.4 12.9 0.00 2.26 2.11 88 1020.6
20260505110903 9 37 8.0 16.1 0.00 2.26 2.11 89 1020.6
20260505101803 9 26 8.0 14.5 0.00 2.26 2.11 90 1020.8
20260505100903 9 41 6.4 17.7 0.00 2.26 2.11 90 1020.7
20260505100003 9 49 8.0 17.7 0.00 2.26 2.11 90 1021.0
20260505095403 9 16 6.4 16.1 0.00 2.26 2.11 90 1021.0
20260505094503 9 47 9.7 17.7 0.00 2.26 2.11 90 1020.9
20260505093605 8 41 9.7 20.9 0.00 2.26 2.11 90 1020.9
20260505092703 8 36 8.0 17.7 0.00 2.26 2.11 90 1021.0
20260505091803 8 56 8.0 14.5 0.00 2.26 2.11 90 1021.1
20260505090905 8 12 8.0 16.1 0.00 2.26 2.11 90 1020.8
20260505090221 8 18 9.7 16.1 0.00 2.26 2.11 90 1020.9
20260505085621 8 62 8.0 20.9 0.00 2.26 2.11 90 1020.9
20260505084720 8 39 9.7 20.9 0.00 2.26 2.11 90 1020.9
20260505083603 8 36 8.0 17.7 0.00 2.26 2.11 90 1021.0
20260505082918 8 16 8.0 16.1 0.00 2.26 2.11 90 1021.0
20260505081803 8 40 11.3 22.5 0.00 2.26 2.11 90 1021.1